THEMIS E

Last updated on Sun Nov 02 2025 00:02:40 GMT+0000 (Coordinated Universal Time)

1 30798U 07004E 25305.65555149 .00000080 00000+0 00000+0 0 9999 2 30798 1.8096 108.5525 8398236 178.6916 37.1903 0.87837848 63911
UTC large
Height (km)
Speed (km/s)
/
Latitude / Longitude
Inclination (degrees)
Orbital Period (minutes)
Azimuth
Elevation
Range (km)
Doppler Factor

Next 0 passes for location: London (51.5072 / 0.1276)

Sorry there are no passes over London.